IW0HP-3 Weather Reports


Display with metric or nautical units.
time (UTC)temp
F
wind
direction
speed
MPH
gust
MPH
rain 1hr
in
rain 24hr
in
rain mn
in
humidity
%
barometer
mb
20260503224402 62 0.0 0.0 0.00 0.00 0.00 66 1020.4
20260503220352 62 0.0 0.0 0.00 0.00 0.00 65 1020.4
20260503212343 63 0.0 0.0 0.00 0.00 0.00 64 1020.2
20260503210338 63 0.0 0.0 0.00 0.00 0.00 64 1020.0
20260503204333 63 0.0 0.0 0.00 0.00 0.00 63 1020.1
20260503202328 64 0.0 0.0 0.00 0.00 0.00 63 1020.0
20260503200323 64 0.0 0.0 0.00 0.00 0.00 62 1019.9
20260503190309 65 0.0 0.0 0.00 0.00 0.00 60 1019.2
20260503184304 65 0.0 0.0 0.00 0.00 0.00 58 1019.0
20260503182259 67 0.0 0.0 0.00 0.00 0.00 53 1018.5
20260503180254 69 0.0 0.0 0.00 0.00 0.00 48 1018.3
20260503174249 73 0.0 0.0 0.00 0.00 0.00 42 1018.3
20260503172242 80 0.0 0.0 0.00 0.00 0.00 36 1018.6
20260503170237 74 0.0 0.0 0.00 0.00 0.00 42 1018.0
20260503150206 71 0.0 0.0 0.00 0.00 0.00 40 1019.0
20260503140151 70 0.0 0.0 0.00 0.00 0.00 38 1019.8
20260503130137 71 0.0 0.0 0.00 0.00 0.00 40 1020.0
20260503120123 70 0.0 0.0 0.00 0.00 0.00 39 1020.4
20260503053953 57 0.0 0.0 0.00 0.00 0.00 56 1021.9
20260503051947 56 0.0 0.0 0.00 0.00 0.00 57 1021.9
20260503045943 56 0.0 0.0 0.00 0.00 0.00 57 1021.8
20260503041933 56 0.0 0.0 0.00 0.00 0.00 59 1021.6
20260503035929 56 0.0 0.0 0.00 0.00 0.00 58 1021.5
20260503033924 55 0.0 0.0 0.00 0.00 0.00 57 1021.4
20260503031919 56 0.0 0.0 0.00 0.00 0.00 56 1021.4
20260503025914 56 0.0 0.0 0.00 0.00 0.00 56 1021.4
20260503023909 56 0.0 0.0 0.00 0.00 0.00 55 1021.5
20260503021905 57 0.0 0.0 0.00 0.00 0.00 55 1021.4
20260503015900 57 0.0 0.0 0.00 0.00 0.00 55 1021.5
20260503013855 57 0.0 0.0 0.00 0.00 0.00 54 1021.6
20260503011850 57 0.0 0.0 0.00 0.00 0.00 54 1021.5
20260503005846 57 0.0 0.0 0.00 0.00 0.00 55 1021.7
20260503003841 58 0.0 0.0 0.00 0.00 0.00 55 1021.8
20260502235831 59 0.0 0.0 0.00 0.00 0.00 55 1022.2
20260502231822 59 0.0 0.0 0.00 0.00 0.00 57 1022.3